Regional Weather Roundup
Issued by NWS Kansas City/Pleasant Hill, MO

Home | Current Version | Previous Version | Graphics & Text | Print | Product List | Glossary Off
Versions: 1 2 3 4 5 6 7 8 9 10 11 12 13 14 15 16 17 18 19 20 21 22 23 24 25 26 27 28 29 30 31 32 33 34 35 36 37 38 39 40 41 42 43 44 45 46 47 48 49 50

000
ASUS43 KEAX 231410
RWREAX

WEATHER ROUNDUP FOR EASTERN KANSAS AND NORTHWEST MISSOURI
NATIONAL WEATHER SERVICE KANSAS CITY/PLEASANT HILL MO
900 AM CDT SUN JUL 23 2017

KSZ040-057-103>105-MOZ028-029-037-043-231500-
...KANSAS CITY METROPOLITAN AREA...

CITY           SKY/WX    TMP DP  RH WIND       PRES   REMARKS
K.C. INTL      PTSUNNY   78  71  79 W7        29.94R
K.C. DOWNTOWN  PTSUNNY   79  72  79 VRB3      29.92S
LEES SUMMIT    PTSUNNY   75  70  84 SW7       29.94S
OLATHE - IXD   CLOUDY    76  68  76 SW10      29.95S
OLATHE - OJC   CLOUDY    75  68  78 SW8       29.95R
LAWRENCE       CLOUDY    77  71  82 W5        29.94S

$$

MOZ001>008-011>017-020>025-030>033-038>040-044>046-053-054-231500-
...NORTHERN AND CENTRAL MISSOURI...

CITY           SKY/WX    TMP DP  RH WIND       PRES   REMARKS
ST. JOSEPH     SUNNY     79  73  82 NW3       29.94S
MOSBY          PTSUNNY   77  72  83 CALM      29.92S
WHITEMAN AFB   PTSUNNY   77  73  86 SW8       29.93F
CLINTON        CLOUDY    73  72  94 SW5       29.96S
SEDALIA        CLOUDY    76  72  87 SW7       29.95F
WARSAW         NOT AVBL
CHILLICOTHE      N/A     79  74  84 VRB3      29.93R
KIRKSVILLE     SUNNY     80  73  79 NW9       29.92R

$$

MOZ041-047>049-056>058-063>065-088>090-097-231500-
...EASTERN AND SOUTHERN MISSOURI...

CITY           SKY/WX    TMP DP  RH WIND       PRES   REMARKS
ST. LOUIS INTL PTSUNNY   78  67  68 W13       29.90R
SPIRIT OF STL  PTSUNNY   75  70  84 W7        29.89R
COLUMBIA       CLOUDY    75  69  81 SW7       29.93R
JEFFERSON CITY CLOUDY    74  71  91 S6        29.93R
ROLLA          PTSUNNY   73  68  84 SW8       29.96R
OSAGE BEACH    MOSUNNY   76  67  73 SW3       29.96R
SPRINGFIELD    PTSUNNY   79  68  69 S5        29.98R
BRANSON        PTSUNNY   82  68  61 SE6       29.99R
JOPLIN         CLOUDY    77  70  79 CALM      29.97F
WEST PLAINS    PTSUNNY   80  65  59 CALM      29.97S

$$

IAZ060-094-KSZ022-034>040-054-083-096-NEZ052-066-093-231500-
...KANSAS...SOUTHEAST NEBRASKA AND IOWA...

CITY           SKY/WX    TMP DP  RH WIND       PRES   REMARKS
TOPEKA         PTSUNNY   76  71  85 VRB5      29.94S
MANHATTAN      SUNNY     76  69  79 CALM      29.97S
EMPORIA        CLOUDY    75  68  78 W5        29.96F
CHANUTE        CLOUDY    71  69  93 VRB5      29.93F
WICHITA        CLOUDY    76  71  85 VRB5      29.97R
OMAHA          CLOUDY    71  69  93 N3        29.98R FOG
LINCOLN        SUNNY     75  69  81 S3        29.99S
FALLS CITY     SUNNY     78  71  79 W8        29.95R
LAMONI         SUNNY     82  77  84 NW7       29.93S HX  90
DES MOINES     MOSUNNY   79  71  76 NW8       29.91R

$$




USA.gov is the U.S. government's official web portal to all federal, state and local government web resources and services.